This is the latest recevied weather packets stored in our database for station/object KB1FFS. If no packets are shown the sender has not sent any weather packets the latest 10 day(s).
| Time | Temp. | Humidity | Pressure | Rain* | Wind** | Luminosity | Snow |
|---|---|---|---|---|---|---|---|
| 1787860653 | 36.67° C | 39% | 1015.9 hPa | 0 mm | - | 544 W/m² | - |
| 1787860348 | 36.67° C | 38% | 1015.9 hPa | 0 mm | - | 330 W/m² | - |
| 1787860043 | 36.67° C | 38% | 1015.9 hPa | 0 mm | - | 311 W/m² | - |
| 1787859738 | 36.67° C | 37% | 1016.1 hPa | 0 mm | - | 292 W/m² | - |
| 1787859439 | 36.67° C | 37% | 1015.8 hPa | 0 mm | - | 286 W/m² | - |
| 1787859138 | 36.67° C | 38% | 1016 hPa | 0 mm | - | 295 W/m² | - |
| 1787858835 | 36.67° C | 37% | 1015.9 hPa | 0 mm | - | 287 W/m² | - |
| 1787858530 | 36.67° C | 38% | 1015.9 hPa | 0 mm | - | 301 W/m² | - |
| 1787858229 | 36.67° C | 38% | 1016.2 hPa | 0 mm | - | 313 W/m² | - |
| 1787857926 | 36.67° C | 39% | 1016.1 hPa | 0 mm | - | 300 W/m² | - |
| 1787857622 | 37.22° C | 39% | 1016 hPa | 0 mm | - | 308 W/m² | - |
| 1787857321 | 37.22° C | 38% | 1016.2 hPa | 0 mm | - | 313 W/m² | - |
| 1787857020 | 37.22° C | 40% | 1016.3 hPa | 0 mm | - | 334 W/m² | - |
| 1787856720 | 37.22° C | 40% | 1016.2 hPa | 0 mm | - | 400 W/m² | - |
| 1787856414 | 37.78° C | 39% | 1016.4 hPa | 0 mm | - | 459 W/m² | - |
| 1787856110 | 38.33° C | 38% | 1016.4 hPa | 0 mm | - | 430 W/m² | - |
| 1787855804 | 38.33° C | 38% | 1016.4 hPa | 0 mm | - | 535 W/m² | - |
| 1787855500 | 38.89° C | 38% | 1016.6 hPa | 0 mm | - | 756 W/m² | - |
| 1787855196 | 38.89° C | 41% | 1016.7 hPa | 0 mm | - | 835 W/m² | - |
| 1787854891 | 38.33° C | 40% | 1016.9 hPa | 0 mm | - | 795 W/m² | - |
| 1787854591 | 37.78° C | 41% | 1016.7 hPa | 0 mm | - | 757 W/m² | - |
| 1787854285 | 37.78° C | 43% | 1017.1 hPa | 0 mm | - | 839 W/m² | - |
| 1787853981 | 37.22° C | 45% | 1017.2 hPa | 0 mm | - | 785 W/m² | - |
| 1787853680 | 37.22° C | 42% | 1017.2 hPa | 0 mm | - | 792 W/m² | - |
| 1787853374 | 37.22° C | 42% | 1017.3 hPa | 0 mm | - | 777 W/m² | - |
* Rain latest hour (hover to see other rain measurements)
** Current wind speed in m/s (hover to see current wind gust speed)